This is the latest recevied weather packets stored in our database for station/object YC0TBU-4. If no packets are shown the sender has not sent any weather packets the latest 10 day(s).
| Time | Temp. | Humidity | Pressure | Rain* | Wind** | Luminosity | Snow |
|---|---|---|---|---|---|---|---|
| 1778020740 | 30° C | 40% | 1009.7 hPa | - | - | - | - |
| 1778019805 | 30° C | 40% | 1009.6 hPa | - | - | - | - |
| 1778018870 | 31.11° C | 39% | 1009.7 hPa | - | - | - | - |
| 1778017919 | 30.56° C | 40% | 1009.9 hPa | - | - | - | - |
| 1778016984 | 30.56° C | 40% | 1010 hPa | - | - | - | - |
| 1778016049 | 30.56° C | 40% | 1009.8 hPa | - | - | - | - |
| 1778015114 | 30.56° C | 40% | 1009.5 hPa | - | - | - | - |
| 1778014179 | 30.56° C | 40% | 1009.7 hPa | - | - | - | - |
| 1778013243 | 30.56° C | 40% | 1009.4 hPa | - | - | - | - |
| 1778012309 | 30.56° C | 39% | 1009.6 hPa | - | - | - | - |
| 1778011373 | 30.56° C | 39% | 1009.3 hPa | - | - | - | - |
| 1778010438 | 30.56° C | 40% | 1009.9 hPa | - | - | - | - |
| 1778009503 | 30° C | 40% | 1010.4 hPa | - | - | - | - |
| 1778008568 | 30° C | 40% | 1010.7 hPa | - | - | - | - |
| 1778007633 | 30° C | 40% | 1011.2 hPa | - | - | - | - |
| 1778006698 | 30° C | 40% | 1011.8 hPa | - | - | - | - |
| 1778005763 | 30° C | 40% | 1011.9 hPa | - | - | - | - |
| 1778004828 | 30° C | 40% | 1011.8 hPa | - | - | - | - |
| 1778003877 | 30° C | 40% | 1012.2 hPa | - | - | - | - |
| 1778002942 | 30° C | 40% | 1012.6 hPa | - | - | - | - |
| 1778002007 | 30.56° C | 39% | 1012.5 hPa | - | - | - | - |
| 1778001072 | 30.56° C | 39% | 1012.7 hPa | - | - | - | - |
| 1778000137 | 29.44° C | 41% | 1012.6 hPa | - | - | - | - |
| 1777999202 | 29.44° C | 42% | 1012.7 hPa | - | - | - | - |
| 1777998267 | 29.44° C | 42% | 1012.4 hPa | - | - | - | - |
* Rain since midnight (hover to see other rain measurements)
** Current wind speed in m/s (hover to see current wind gust speed)